[[{"header":{"parameterUnit":"m.s-1","parameterCategory":1,"la1":30.2991,"la2":30.254,"lo1":-89.0895,"lo2":-89.0444,"dy":0.0017,"dx":0.0017,"nx":28,"ny":28,"refTime":"2025-07-04T03:00:00:Z","depth":0,"parameterNumber":2,"parameterNumberName":"U-component_of_WINDS"},"data":[0,0,0,0,0,0,0,0,0,0,0,0,0,0,0,0,0,0,0,0,0,0,0,0,0,0,0,0,0,0,0,0,0,0,0,0,0,0,0,0,0,0,0,0,0,0,0,0,0,0,0,0,0,0,0,0,0,0,-0.8685,-0.8685,0,-0.8629,-0.8628,-0.8628,-0.8612,-0.8612,-0.8613,-0.8613,-0.8553,-0.8551,-0.8549,0,0,0,0,0,0,0,0,0,0,0,0,0,-0.8773,-0.8772,-0.8685,-0.8684,-0.8684,-0.8629,-0.8628,-0.8627,-0.8612,-0.8612,-0.8613,-0.8613,-0.8553,-0.8551,-0.8549,0,0,0,0,0,0,0,0,0,0,0,0,0,-0.8728,-0.8771,-0.8685,-0.867,-0.8668,-0.8629,-0.8628,-0.8627,-0.8612,-0.8612,-0.8613,-0.8613,-0.8554,-0.8551,-0.8548,-0.8521,0,0,-0.854,-0.8538,0,0,0,0,0,0,0,0,-0.873,-0.8725,-0.8673,-0.8671,-0.8668,-0.8628,-0.8637,-0.8591,-0.8612,-0.8633,-0.8613,-0.8614,-0.8577,-0.8572,-0.8561,-0.8518,-0.8515,-0.8539,-0.8538,-0.8536,-0.8536,0,0,0,0,0,0,0,-0.8734,-0.8727,-0.8663,-0.8672,-0.8669,-0.8663,-0.8657,-0.8628,-0.8603,-0.8631,-0.863,-0.8624,-0.8576,-0.8563,-0.8559,-0.8515,-0.8539,-0.8537,-0.8535,-0.8534,-0.844,-0.8439,0,0,0,0,0,0,-0.874,-0.873,-0.8665,-0.8661,-0.8701,-0.8661,-0.8655,-0.864,-0.8603,-0.8598,-0.8623,-0.8623,-0.8568,-0.8562,-0.8557,-0.8518,-0.8536,-0.8534,-0.8532,-0.8441,-0.844,-0.8439,0,0,0,0,0,0,-0.8742,-0.8734,-0.8667,-0.8695,-0.8686,-0.8659,-0.8643,-0.8639,-0.8626,-0.8597,-0.8592,-0.8615,-0.8568,-0.8561,-0.8529,-0.8516,-0.8532,-0.853,-0.8442,-0.844,-0.8439,-0.8443,0,0,0,0,0,0,-0.8745,-0.8735,-0.8726,-0.8695,-0.8684,-0.8642,-0.8643,-0.8638,-0.8622,-0.8621,-0.8589,-0.8584,-0.8568,-0.8533,-0.8526,-0.8512,-0.8528,-0.8443,-0.8441,-0.844,-0.8444,-0.8442,-0.8441,0,0,0,0,0,-0.8748,-0.873,-0.8726,-0.8718,-0.8673,-0.8641,-0.8635,-0.8618,-0.8621,-0.861,-0.859,-0.8585,-0.8519,-0.853,-0.8522,-0.8507,-0.8443,-0.8442,-0.844,-0.8445,-0.8442,-0.8441,0,0,0,0,0,0,-0.8761,-0.8726,-0.8721,-0.8693,-0.867,-0.8639,-0.8625,-0.8617,-0.8593,-0.8593,-0.8572,-0.8565,-0.8533,-0.8517,-0.853,-0.8475,-0.8481,-0.8477,-0.8487,-0.8485,-0.8483,-0.8487,-0.8525,0,0,0,0,0,-0.8761,-0.8739,-0.8709,-0.8687,-0.8676,-0.8652,-0.8638,-0.8627,-0.8602,-0.8592,-0.857,-0.8545,-0.8517,-0.8501,-0.8475,-0.8442,-0.8431,-0.8427,-0.8425,-0.8424,-0.8421,-0.8397,-0.8393,-0.8433,-0.8433,-0.8433,0,0,-0.876,-0.8738,-0.8726,-0.8689,-0.867,-0.8646,-0.8644,-0.862,-0.8601,-0.8588,-0.8555,-0.8538,-0.8508,-0.8474,-0.8458,-0.8459,-0.8407,-0.8422,-0.8421,-0.8418,-0.8394,-0.8391,-0.8387,-0.8432,-0.8432,-0.8432,0,0,-0.8746,-0.8729,-0.8706,-0.8686,-0.8657,-0.8641,-0.8635,-0.8604,-0.8591,-0.8558,-0.8546,-0.8522,-0.8478,-0.8455,-0.8438,-0.841,-0.8401,-0.8402,-0.8393,-0.8369,-0.8366,-0.8363,-0.8349,-0.8344,-0.8399,-0.8399,-0.8399,0,-0.8749,-0.8713,-0.8696,-0.867,-0.8653,-0.8639,-0.8614,-0.8595,-0.8559,-0.8546,-0.8548,-0.8488,-0.8468,-0.8426,-0.8418,-0.8406,-0.8396,-0.8405,-0.8368,-0.8365,-0.8362,-0.8348,-0.8343,-0.8399,-0.8399,-0.8399,-0.8399,0,-0.8715,-0.869,-0.8676,-0.864,-0.862,-0.8596,-0.8572,-0.8554,-0.8543,-0.8525,-0.8488,-0.8462,-0.8428,-0.8418,-0.8408,-0.8372,-0.8374,-0.8373,-0.8377,-0.8358,-0.8344,-0.8339,-0.8399,-0.8399,-0.8399,-0.8399,0,0,-0.8711,-0.8662,-0.8657,-0.8638,-0.8602,-0.8582,-0.8554,-0.8521,-0.8503,-0.8477,-0.8451,-0.8411,-0.8408,-0.8388,-0.8375,-0.8355,-0.8328,-0.8355,-0.8354,-0.8348,-0.8282,-0.8281,-0.8275,-0.8323,-0.8322,-0.8321,-0.8283,0,-0.869,-0.8642,-0.8623,-0.8582,-0.8556,-0.854,-0.8515,-0.8489,-0.847,-0.8443,-0.8422,-0.8392,-0.8393,-0.838,-0.836,-0.8336,-0.8314,-0.8339,-0.8294,-0.8293,-0.83,-0.8269,-0.8269,-0.8235,-0.8278,-0.8277,-0.8276,0,-0.866,-0.8632,-0.8589,-0.8551,-0.854,-0.8518,-0.8483,-0.8459,-0.8426,-0.8413,-0.8389,-0.8376,-0.8342,-0.8349,-0.83,-0.8317,-0.8297,-0.8282,-0.828,-0.8274,-0.8282,-0.8258,-0.8224,-0.8217,-0.8268,-0.8269,-0.827,0,-0.8657,-0.8609,-0.8575,-0.856,-0.8516,-0.85,-0.8481,-0.8449,-0.8429,-0.8397,-0.8382,-0.8348,-0.8328,-0.83,-0.8276,-0.8284,-0.8227,-0.8233,-0.8212,-0.8212,-0.82,-0.8201,-0.8159,-0.8192,-0.8192,-0.8192,-0.8192,0,-0.8635,-0.8608,-0.8572,-0.8552,-0.8519,-0.8496,-0.8463,-0.8443,-0.8413,-0.8386,-0.837,-0.8344,-0.8315,-0.8283,-0.8264,-0.8223,-0.8216,-0.8202,-0.8196,-0.8202,-0.8203,-0.8187,-0.8188,-0.8191,-0.8191,-0.8191,-0.8192,0,-0.8626,-0.8602,-0.8563,-0.8524,-0.8513,-0.849,-0.8455,-0.8432,-0.8411,-0.8375,-0.8365,-0.8332,-0.8294,-0.8267,-0.8219,-0.8205,-0.8159,-0.8156,-0.817,-0.8167,-0.8146,-0.8147,-0.809,-0.8079,-0.8123,-0.8123,-0.8123,0,-0.8613,-0.8592,-0.8549,-0.8529,-0.8509,-0.8478,-0.8456,-0.843,-0.8407,-0.8365,-0.8346,-0.8307,-0.8274,-0.8213,-0.8182,-0.8143,-0.8137,-0.8119,-0.8131,-0.8135,-0.8132,-0.8132,-0.8127,-0.8117,-0.8117,-0.8117,-0.8117,0,-0.8591,-0.8579,-0.8548,-0.8511,-0.8485,-0.8455,-0.8424,-0.8408,-0.8377,-0.8351,-0.8311,-0.8285,-0.8233,-0.8193,-0.815,-0.8127,-0.8114,-0.8113,-0.8105,-0.8109,-0.8117,-0.8108,-0.8162,-0.8114,-0.8115,-0.8115,-0.8115,-0.8115,-0.8578,-0.8556,-0.852,-0.8485,-0.8459,-0.8429,-0.8404,-0.8378,-0.8345,-0.8301,-0.8287,-0.8245,-0.8206,-0.8147,-0.8123,-0.8087,-0.8088,-0.8078,-0.8075,-0.8072,-0.807,-0.8124,-0.8079,-0.8079,-0.8079,-0.808,-0.808,0,-0.8552,-0.8527,-0.8495,-0.8451,-0.8422,-0.8413,-0.8377,-0.8352,-0.8315,-0.8282,-0.8248,-0.8199,-0.8158,-0.8122,-0.8079,-0.8056,-0.8048,-0.8045,-0.8045,-0.8038,-0.8074,-0.8083,-0.8051,-0.8051,-0.8051,-0.8051,-0.8051,-0.8051,-0.8535,-0.8496,-0.8478,-0.8423,-0.8398,-0.8356,-0.8336,-0.8306,-0.8278,-0.8224,-0.819,-0.8167,-0.813,-0.8083,-0.8042,-0.8033,-0.8015,-0.8012,-0.8001,-0.8034,-0.8037,-0.804,-0.8048,-0.801,-0.801,-0.7968,-0.7968,-0.7967]},{"header":{"parameterUnit":"m.s-1","parameterCategory":1,"la1":30.2991,"la2":30.254,"lo1":-89.0895,"lo2":-89.0444,"dy":0.0017,"dx":0.0017,"nx":28,"ny":28,"refTime":"2025-07-04T03:00:00:Z","depth":0,"parameterNumber":3,"parameterNumberName":"V-component_of_WINDS"},"data":[0,0,0,0,0,0,0,0,0,0,0,0,0,0,0,0,0,0,0,0,0,0,0,0,0,0,0,0,0,0,0,0,0,0,0,0,0,0,0,0,0,0,0,0,0,0,0,0,0,0,0,0,0,0,0,0,0,0,-1.8115,-1.8114,0,-1.8029,-1.8029,-1.8028,-1.8065,-1.8067,-1.807,-1.8072,-1.7986,-1.7982,-1.7978,0,0,0,0,0,0,0,0,0,0,0,0,0,-1.8312,-1.8308,-1.8115,-1.8114,-1.8113,-1.803,-1.8028,-1.8027,-1.8065,-1.8068,-1.807,-1.8073,-1.7987,-1.7982,-1.7977,0,0,0,0,0,0,0,0,0,0,0,0,0,-1.8227,-1.8307,-1.8115,-1.8121,-1.8121,-1.803,-1.8028,-1.8027,-1.8064,-1.8068,-1.8071,-1.8074,-1.7989,-1.7983,-1.7977,-1.7875,0,0,-1.7957,-1.7955,0,0,0,0,0,0,0,0,-1.8231,-1.8219,-1.8121,-1.8121,-1.812,-1.8061,-1.8067,-1.7976,-1.8064,-1.8086,-1.8072,-1.8075,-1.8009,-1.8001,-1.7978,-1.7871,-1.7867,-1.7957,-1.7953,-1.795,-1.7948,0,0,0,0,0,0,0,-1.8237,-1.8223,-1.8081,-1.812,-1.8119,-1.8129,-1.8121,-1.805,-1.8031,-1.8084,-1.8087,-1.8076,-1.8009,-1.7984,-1.7976,-1.7866,-1.7957,-1.7951,-1.7947,-1.7945,-1.767,-1.7666,0,0,0,0,0,0,-1.8243,-1.8228,-1.8084,-1.8079,-1.8185,-1.8123,-1.8113,-1.8077,-1.8032,-1.8028,-1.8074,-1.8078,-1.7993,-1.7984,-1.7974,-1.7849,-1.795,-1.7944,-1.7941,-1.7673,-1.7669,-1.7665,0,0,0,0,0,0,-1.8247,-1.823,-1.8087,-1.8154,-1.8136,-1.8116,-1.8075,-1.8074,-1.8049,-1.8024,-1.8021,-1.8051,-1.7996,-1.7982,-1.7899,-1.7847,-1.7941,-1.7936,-1.7677,-1.7672,-1.7667,-1.7601,0,0,0,0,0,0,-1.8252,-1.8231,-1.8191,-1.8153,-1.8133,-1.8013,-1.8072,-1.807,-1.8038,-1.8043,-1.8002,-1.7998,-1.7997,-1.7908,-1.7892,-1.784,-1.7931,-1.7682,-1.7675,-1.7669,-1.7607,-1.7594,-1.7582,0,0,0,0,0,-1.8259,-1.8177,-1.8189,-1.8171,-1.8083,-1.801,-1.7998,-1.7998,-1.8033,-1.7993,-1.7977,-1.7999,-1.7856,-1.7899,-1.7882,-1.7826,-1.7685,-1.7677,-1.7669,-1.7613,-1.7596,-1.7582,0,0,0,0,0,0,-1.821,-1.8172,-1.8185,-1.8087,-1.8051,-1.8016,-1.7965,-1.7981,-1.7934,-1.7941,-1.7944,-1.7934,-1.7847,-1.7829,-1.7878,-1.7725,-1.7776,-1.7764,-1.7739,-1.7723,-1.7711,-1.7715,-1.7925,0,0,0,0,0,-1.8188,-1.8131,-1.8101,-1.8018,-1.7999,-1.7985,-1.7954,-1.7957,-1.792,-1.7905,-1.7883,-1.7847,-1.7793,-1.7758,-1.7708,-1.7607,-1.7597,-1.756,-1.7548,-1.7538,-1.7526,-1.747,-1.7452,-1.7639,-1.7639,-1.7639,0,0,-1.8141,-1.8113,-1.8077,-1.8007,-1.798,-1.7921,-1.7972,-1.7908,-1.7864,-1.7896,-1.7813,-1.7797,-1.7757,-1.7663,-1.7621,-1.7645,-1.7473,-1.7528,-1.752,-1.7514,-1.746,-1.7442,-1.7426,-1.7634,-1.7635,-1.7636,0,0,-1.8025,-1.7999,-1.7925,-1.7897,-1.7855,-1.7846,-1.7829,-1.7792,-1.7781,-1.7699,-1.7721,-1.767,-1.7579,-1.7549,-1.7521,-1.7396,-1.7413,-1.738,-1.7312,-1.7257,-1.7243,-1.7229,-1.7182,-1.7165,-1.7369,-1.7369,-1.7369,0,-1.7972,-1.7883,-1.7886,-1.7819,-1.7788,-1.7813,-1.7739,-1.7712,-1.7655,-1.7633,-1.7662,-1.7547,-1.7522,-1.7421,-1.739,-1.7369,-1.7348,-1.7382,-1.7245,-1.7231,-1.7219,-1.7174,-1.7156,-1.7365,-1.7365,-1.7366,-1.7366,0,-1.7819,-1.7758,-1.7704,-1.7647,-1.761,-1.754,-1.7533,-1.7495,-1.7502,-1.7491,-1.7407,-1.7379,-1.7323,-1.73,-1.7307,-1.7199,-1.7216,-1.7245,-1.7295,-1.7197,-1.7154,-1.7137,-1.7359,-1.7361,-1.7362,-1.7363,0,0,-1.7666,-1.7613,-1.7593,-1.7567,-1.7523,-1.7475,-1.7408,-1.7352,-1.7318,-1.728,-1.7222,-1.7144,-1.7171,-1.714,-1.7144,-1.7096,-1.6995,-1.7131,-1.713,-1.7104,-1.6873,-1.6849,-1.6829,-1.7009,-1.7006,-1.7003,-1.6875,0,-1.7544,-1.7422,-1.7423,-1.7311,-1.7254,-1.7278,-1.7219,-1.7186,-1.7174,-1.7125,-1.7113,-1.7057,-1.7097,-1.7078,-1.7033,-1.7017,-1.6948,-1.7027,-1.6953,-1.6951,-1.6958,-1.6807,-1.6781,-1.6661,-1.6859,-1.6856,-1.6854,0,-1.7384,-1.7339,-1.722,-1.7184,-1.716,-1.7106,-1.7055,-1.7007,-1.6971,-1.6966,-1.6932,-1.6944,-1.6875,-1.693,-1.6835,-1.6888,-1.6859,-1.6847,-1.6843,-1.6833,-1.6893,-1.6789,-1.6623,-1.6604,-1.6829,-1.6831,-1.6833,0,-1.728,-1.719,-1.7107,-1.7085,-1.7041,-1.7002,-1.6983,-1.695,-1.6916,-1.6872,-1.685,-1.68,-1.6771,-1.6732,-1.673,-1.6771,-1.6633,-1.6689,-1.6626,-1.6625,-1.6592,-1.6593,-1.6415,-1.6579,-1.658,-1.658,-1.658,0,-1.7141,-1.7067,-1.7059,-1.7007,-1.6925,-1.6929,-1.6848,-1.6832,-1.6802,-1.6748,-1.6769,-1.6718,-1.672,-1.6669,-1.6668,-1.6588,-1.6576,-1.6569,-1.6569,-1.6565,-1.6565,-1.6543,-1.6549,-1.6575,-1.6576,-1.6577,-1.6578,0,-1.7009,-1.7001,-1.6912,-1.6878,-1.6868,-1.6809,-1.678,-1.6731,-1.6723,-1.6655,-1.6639,-1.6625,-1.6566,-1.6561,-1.6494,-1.6493,-1.6394,-1.6406,-1.6406,-1.6406,-1.6342,-1.6347,-1.614,-1.6112,-1.6298,-1.6297,-1.6295,0,-1.6919,-1.6862,-1.6822,-1.6787,-1.6765,-1.6708,-1.6674,-1.6676,-1.664,-1.6594,-1.6551,-1.6494,-1.6447,-1.6352,-1.6336,-1.6284,-1.6292,-1.6223,-1.6284,-1.6281,-1.6286,-1.6288,-1.6281,-1.621,-1.6208,-1.6206,-1.6205,0,-1.6758,-1.6757,-1.6706,-1.6653,-1.6612,-1.6571,-1.6533,-1.6503,-1.6501,-1.6459,-1.6398,-1.6363,-1.6293,-1.6235,-1.6185,-1.6166,-1.6183,-1.6187,-1.6168,-1.6161,-1.6162,-1.6158,-1.6369,-1.619,-1.6192,-1.6193,-1.6193,-1.6194,-1.6641,-1.6591,-1.6555,-1.6498,-1.647,-1.6433,-1.6385,-1.6371,-1.632,-1.6262,-1.6268,-1.62,-1.6166,-1.6099,-1.6077,-1.6024,-1.6047,-1.6022,-1.6015,-1.6007,-1.5999,-1.6174,-1.6015,-1.6016,-1.6016,-1.6017,-1.6017,0,-1.6479,-1.6457,-1.6404,-1.635,-1.6304,-1.6327,-1.6287,-1.6247,-1.6187,-1.6153,-1.6107,-1.6037,-1.5982,-1.5963,-1.5909,-1.587,-1.5877,-1.5856,-1.5856,-1.5851,-1.5983,-1.6002,-1.5851,-1.5851,-1.5851,-1.5851,-1.5851,-1.5851,-1.6388,-1.6304,-1.6299,-1.6202,-1.6181,-1.6113,-1.6088,-1.6055,-1.6028,-1.5948,-1.5902,-1.589,-1.5862,-1.5806,-1.5757,-1.5753,-1.573,-1.5704,-1.5703,-1.5826,-1.5842,-1.5858,-1.5876,-1.57,-1.57,-1.5576,-1.5575,-1.5574]}]]